Temperature
12 12 12 11 11 11 11 11 11 11 11 11 11 11 10 10 10 10 10 10 10 10 10 10 10 9 9 9 9 9 9 9 9 9 8 8 8 8 8 7 7 7 7
12 12 11 11 11 11 11 11 10 10 10 10 10 10 10 10 10 10 10 10 10 10 10 10 9 9 9 9 9 9 9 9 8 8 8 8 8 8 7 7 7 7 6
12 11 11 11 11 11 11 11 10 10 10 10 10 10 10 10 10 10 10 10 10 10 10 10 10 9 9 9 9 9 8 8 8 8 8 7 7 7 7 7 6 6 6
12 11 11 11 11 11 11 10 10 10 10 10 10 10 10 10 10 10 10 10 9 9 9 9 9 9 9 9 8 8 8 8 8 8 7 7 7 7 6 6 6 5 5
12 11 11 11 11 11 11 10 10 10 10 10 10 10 10 10 10 10 9 9 9 9 9 9 9 9 9 9 8 8 8 8 7 7 7 7 6 6 6 5 5 5 5
12 12 12 11 11 11 11 10 10 10 10 10 10 10 10 10 10 10 9 9 9 9 9 9 9 9 9 9 8 8 8 7 7 7 7 6 6 5 5 5 5 5 4
12 12 12 11 11 11 11 10 10 10 10 10 10 9 9 9 9 9 9 9 9 9 9 9 9 9 9 9 8 8 8 7 7 6 6 6 5 5 5 5 4 4 4
12 12 12 11 11 11 11 10 10 10 9 9 10 9 9 9 9 9 9 9 9 9 9 9 9 9 9 9 9 8 8 7 6 6 6 5 5 4 4 4 4 4 3
12 12 12 11 11 11 11 10 10 10 9 9 9 10 9 9 9 9 9 9 9 9 9 9 9 9 9 8 8 8 8 7 6 6 5 5 5 4 4 4 3 3 3
11 12 11 11 11 11 11 11 10 10 10 9 9 10 10 10 10 9 9 9 9 9 9 9 9 9 8 8 8 8 7 7 6 6 5 5 4 4 3 3 3 3 2
11 11 11 11 11 11 11 11 10 10 10 10 9 9 10 10 10 9 9 9 9 9 9 9 9 8 8 8 8 7 7 6 6 5 5 4 4 3 3 3 3 2 2
11 11 11 11 11 11 11 11 10 10 10 9 9 10 10 10 10 10 9 9 9 9 8 8 8 8 8 8 7 7 7 6 6 5 4 4 4 3 3 2 2 2 1
11 12 11 11 11 11 11 11 10 10 10 10 9 9 10 10 10 10 10 9 9 8 8 8 8 8 8 7 7 7 6 6 5 5 4 3 3 3 2 2 2 1 1
12 12 12 12 12 11 11 11 10 10 10 10 9 9 10 10 10 9 9 9 8 8 8 8 8 8 8 7 7 6 6 6 5 4 4 3 3 2 2 1 1 1 0
11 11 12 12 12 11 11 11 11 10 10 10 10 9 9 10 9 9 9 9 9 8 8 8 8 7 7 7 6 6 6 5 4 4 3 3 2 2 1 1 1 0 -0
11 11 11 11 11 11 11 11 11 10 10 10 10 9 9 9 9 9 9 9 8 8 8 7 7 7 7 6 6 6 5 4 4 3 3 2 2 1 1 1 0 -0 -1
11 11 11 11 11 11 11 11 11 10 10 10 10 10 10 10 9 9 9 9 8 8 8 7 7 7 6 6 6 5 5 4 4 3 2 2 1 1 0 0 -1 -1 -1
11 11 11 11 11 11 11 11 10 10 10 10 10 10 10 9 9 9 9 8 8 8 7 7 7 6 6 5 5 5 4 4 3 3 2 2 1 0 -0 -1 -1 -1 -2
11 11 11 11 11 11 11 11 11 10 10 10 10 10 10 9 9 9 9 8 8 8 7 7 6 6 5 5 5 4 4 3 3 2 2 1 1 -0 -1 -1 -1 -2 -2
11 11 11 11 11 11 11 11 11 10 10 10 10 10 10 9 9 9 9 8 8 7 7 6 6 6 5 5 4 4 4 3 3 2 1 1 0 -0 -1 -2 -2 -2 -3
11 11 11 10 10 10 11 11 11 10 10 10 10 9 9 9 9 9 8 8 8 7 7 6 6 5 5 4 4 4 3 3 2 2 1 1 0 -0 -1 -2 -2 -3 -3
10 10 10 10 10 10 10 11 11 10 10 10 9 9 9 9 8 8 8 8 7 7 7 6 6 5 5 4 4 3 2 2 2 1 1 0 -0 -1 -1 -2 -3 -3 -4
10 10 10 10 10 10 10 10 10 10 10 10 9 9 9 9 8 8 7 7 7 6 6 6 5 5 4 4 3 3 2 1 1 1 0 0 -0 -1 -1 -2 -3 -4 -4
9 10 10 10 10 10 10 10 10 10 10 9 9 9 9 9 8 8 7 7 7 6 6 5 5 4 4 3 3 2 1 1 1 0 -1 -1 -1 -1 -1 -2 -3 -4 -4
9 9 10 10 10 10 10 10 10 9 9 9 9 9 9 8 8 8 7 7 6 6 5 5 4 4 3 3 2 1 1 0 0 -0 -1 -2 -2 -2 -2 -2 -3 -4 -4
8 9 9 9 9 10 10 10 9 9 9 9 9 8 8 8 8 7 7 7 6 6 5 4 4 3 3 2 2 1 0 -0 -1 -1 -2 -3 -3 -4 -3 -3 -3 -4 -4
Wind_Speed
9 10 9 10 10 11 10 7 6 7 7 7 6 5 5 6 9 11 10 9 7 6 5 4 4 3 3 3 4 5 6 7 8 9 10 11 12 13 14 15 16 16 17
10 9 9 8 9 11 10 7 6 6 5 4 4 5 5 6 8 10 11 9 7 6 5 3 3 3 2 2 3 4 5 6 7 9 10 11 12 13 14 15 16 16 17
13 10 9 8 8 11 10 7 6 5 4 4 4 4 4 4 6 8 10 10 8 6 5 4 2 2 1 1 2 4 5 6 8 9 10 11 13 14 15 15 16 17 17
16 11 9 9 10 10 7 5 5 5 4 4 3 3 3 3 3 5 8 8 9 7 6 5 3 2 0 1 2 4 5 7 8 9 11 12 13 14 15 16 17 18 18
17 13 9 9 12 8 6 6 5 5 5 4 4 3 2 3 2 3 4 7 8 8 7 6 4 3 1 1 3 4 6 7 8 10 11 12 13 14 15 16 17 18 19
17 14 10 11 11 8 7 7 6 5 5 5 4 3 2 3 2 3 3 5 7 7 7 7 6 4 3 2 3 4 6 8 9 10 11 12 13 14 15 16 17 18 19
16 14 10 11 10 9 9 9 7 7 5 4 4 2 0 2 3 3 3 3 5 7 6 6 6 5 4 3 3 5 7 8 9 10 11 12 14 14 16 17 17 18 19
15 14 13 11 11 9 10 9 8 6 4 5 5 4 1 1 2 3 3 3 3 5 5 6 5 4 3 3 2 4 7 9 10 11 12 13 14 15 16 17 18 18 19
15 14 14 12 11 10 10 10 9 8 6 5 5 4 3 4 2 2 4 4 4 3 3 5 5 5 4 3 2 3 5 7 9 10 12 13 14 15 16 17 17 18 19
14 16 15 13 12 10 10 10 9 7 8 7 5 3 2 3 3 2 2 3 5 4 4 3 4 5 4 3 2 2 4 6 8 10 11 12 14 15 16 17 17 18 19
14 15 15 14 13 11 11 11 10 9 7 6 5 4 2 1 2 3 3 3 2 3 4 4 4 5 5 4 3 2 3 5 7 9 10 12 13 14 16 16 17 18 19
12 15 15 14 13 11 12 11 11 11 8 7 6 5 4 3 3 3 3 3 3 3 3 3 3 4 5 4 3 2 3 5 6 8 9 11 12 13 15 16 17 18 19
11 15 14 14 13 12 12 11 11 10 10 9 7 5 5 4 3 3 3 3 2 2 2 2 3 5 5 5 3 2 3 4 5 7 8 10 11 12 14 15 16 17 18
12 15 16 14 14 14 13 12 10 9 9 9 9 7 5 5 4 4 4 4 2 1 2 3 1 4 5 5 2 1 2 5 5 6 7 9 10 11 12 13 15 16 17
11 16 16 15 14 14 14 13 10 11 10 10 9 8 6 5 4 4 4 5 5 3 3 3 2 2 4 4 2 0 2 4 5 6 7 8 9 10 11 12 14 15 16
13 15 16 16 15 15 15 13 11 11 11 10 8 9 8 5 5 4 4 4 4 4 3 2 2 2 3 3 1 0 2 4 5 5 6 8 9 10 11 11 13 14 16
13 15 16 17 16 16 15 14 13 13 13 11 10 10 10 8 6 5 4 4 3 3 3 1 1 1 2 2 1 0 1 2 3 5 6 7 8 10 10 11 12 14 15
13 14 15 16 16 16 16 16 15 14 14 13 12 11 10 8 8 6 5 5 4 4 4 3 1 1 1 2 1 1 2 2 3 4 6 7 9 9 10 10 11 13 14
12 14 14 16 16 16 16 16 15 14 13 13 12 12 11 10 9 7 7 6 5 4 3 3 2 1 1 1 1 1 2 2 4 3 5 7 9 9 9 10 11 12 13
11 13 14 15 15 15 15 15 15 14 12 11 11 11 11 11 11 10 8 7 6 5 3 3 2 1 1 1 1 1 2 2 3 3 5 7 8 8 9 10 11 12 13
10 11 12 13 13 13 14 15 14 13 13 11 10 10 10 11 12 10 8 8 7 6 4 3 2 2 1 1 1 0 1 2 2 1 2 4 5 4 6 9 9 11 13
9 10 12 13 13 12 16 19 16 13 12 12 11 9 9 10 12 12 11 11 10 8 7 5 3 3 3 2 1 0 1 2 2 2 2 4 3 3 4 5 9 11 13
8 9 11 12 13 14 19 20 19 14 12 12 11 10 8 8 11 9 10 10 8 8 9 7 5 4 4 4 3 2 1 1 2 2 2 3 3 4 5 6 9 11 13
7 8 9 11 12 13 19 20 19 13 11 11 11 11 11 10 11 11 9 7 5 4 5 5 5 4 4 4 4 3 2 1 2 2 2 1 3 4 6 5 8 11 14
6 7 8 9 11 13 18 20 18 11 9 10 10 11 12 11 15 17 12 10 7 5 6 9 9 8 8 7 6 4 3 2 1 1 1 1 2 4 4 3 6 11 14
5 5 6 8 10 11 16 20 18 10 10 9 8 10 13 14 18 18 13 12 10 7 7 7 7 8 7 7 7 4 3 1 1 1 1 1 2 3 4 3 4 7 10
Wind_Direction
157 157 158 160 163 159 160 171 170 160 150 159 164 140 128 117 119 123 127 125 120 125 127 121 110 102 87 66 49 34 23 15 10 7 3 359 357 355 352 348 346 344 343
161 161 157 162 162 159 165 171 163 153 149 149 149 141 142 133 129 131 139 138 135 132 131 126 119 111 86 59 34 19 10 2 360 358 356 353 351 348 345 343 341 340 339
162 163 159 160 160 160 163 166 154 143 141 142 151 144 135 129 134 140 146 150 152 148 142 136 121 123 82 24 5 359 357 352 350 349 345 344 342 341 339 338 337 336 335
165 164 159 161 161 158 158 154 150 142 145 149 151 143 132 131 144 146 147 153 156 157 162 162 156 161 162 334 340 341 342 341 339 338 337 337 337 337 337 336 335 334 332
167 163 160 160 159 154 155 158 152 148 151 151 146 139 141 139 158 147 153 152 150 154 164 175 175 181 204 282 309 324 329 329 329 329 331 332 333 334 334 333 334 334 334
167 162 160 160 158 155 158 157 155 152 151 151 146 142 156 162 161 163 172 158 159 163 165 167 172 189 212 249 289 312 319 321 322 325 328 330 330 330 331 332 332 333 332
169 163 161 162 160 161 165 162 157 157 159 146 124 121 208 190 177 181 179 167 168 171 173 171 171 182 202 233 269 301 313 318 321 324 326 327 327 328 328 329 330 331 332
171 169 163 164 164 164 166 167 158 158 164 155 145 142 169 232 249 201 180 180 180 172 171 179 177 183 182 184 232 293 309 315 319 322 325 326 325 325 327 328 329 331 332
174 172 167 164 167 166 170 170 166 163 168 171 165 159 158 193 202 217 204 188 187 178 175 175 180 186 187 179 201 273 305 313 317 320 323 324 326 326 327 327 330 331 332
177 174 171 168 169 169 170 174 171 166 163 173 190 205 175 147 148 183 232 209 191 183 181 173 174 177 179 179 193 260 299 310 317 321 324 326 328 328 328 330 332 333 333
181 175 174 172 172 172 173 174 170 171 173 172 175 178 188 165 160 152 198 214 208 200 181 172 164 166 171 174 182 245 293 307 316 322 327 329 330 331 331 333 334 334 334
184 178 177 176 175 175 175 175 174 175 177 175 173 170 163 165 184 174 186 192 202 211 190 173 162 162 164 167 181 244 282 302 314 324 328 330 332 332 333 334 335 335 335
187 183 181 179 178 177 175 173 175 178 178 177 178 180 176 181 174 168 168 190 194 199 173 185 171 152 154 156 172 250 279 300 310 320 326 330 332 333 333 334 336 337 337
189 180 181 181 179 176 176 173 176 178 179 180 183 179 178 186 181 169 164 162 178 233 189 201 161 139 144 148 170 249 284 304 310 319 326 330 331 332 334 336 337 337 338
189 180 182 182 180 178 178 175 179 180 179 184 186 184 181 181 178 173 160 156 162 194 227 202 164 144 130 134 145 111 280 296 312 318 324 329 332 335 336 337 338 338 338
189 182 182 182 181 181 180 179 179 178 181 185 183 183 186 181 177 174 170 167 165 174 207 193 153 136 113 124 148 253 268 306 306 313 325 330 332 333 335 338 338 338 338
190 184 183 183 183 183 182 182 183 180 184 185 184 185 188 180 178 177 171 167 172 165 196 206 96 106 113 140 99 56 302 303 297 311 323 328 331 334 337 339 339 339 341
193 185 182 184 185 185 183 184 185 185 186 187 187 185 186 180 177 175 172 175 180 176 176 194 172 130 141 151 113 356 340 330 314 309 331 332 332 333 335 339 341 342 343
194 187 185 186 187 186 185 185 185 186 188 188 186 186 185 179 183 179 174 179 180 171 163 167 174 150 103 94 65 359 346 341 330 329 340 333 329 331 336 338 340 343 344
194 188 188 188 187 185 184 183 182 183 184 184 184 184 184 184 185 181 180 178 167 164 166 159 156 147 109 81 81 359 324 323 323 355 347 333 328 331 334 337 341 343 343
196 188 186 186 184 184 185 180 179 179 179 179 179 181 181 179 179 177 175 172 168 170 168 167 164 141 140 115 188 219 305 324 320 351 340 321 322 322 328 333 337 340 342
194 190 188 185 184 187 181 177 176 177 177 178 179 177 174 172 170 167 165 166 167 172 177 175 179 179 188 179 148 119 58 3 299 315 342 311 324 322 325 326 333 341 344
188 189 190 186 186 183 175 174 172 175 177 179 177 173 169 171 164 163 157 152 157 163 169 170 174 185 176 180 163 161 156 301 264 285 349 301 311 318 323 327 337 343 345
189 189 189 188 183 179 172 170 168 174 176 176 174 172 169 167 167 159 150 146 141 140 152 151 159 163 156 156 161 160 154 27 335 352 35 307 310 318 321 314 331 343 345
194 190 186 185 182 178 171 167 164 172 172 173 170 168 167 168 164 154 151 149 139 126 112 118 118 118 118 117 113 108 98 57 351 312 25 1 313 323 314 300 321 335 339
197 188 185 185 180 177 170 166 164 172 170 168 164 168 167 166 163 160 161 158 157 152 134 119 109 104 99 104 106 115 143 115 24 285 330 9 332 347 324 304 314 320 331
Height
1492 1496 1499 1503 1506 1510 1513 1515 1519 1521 1523 1526 1528 1530 1531 1532 1533 1534 1534 1535 1536 1537 1537 1537 1537 1537 1537 1537 1536 1535 1534 1533 1532 1530 1528 1527 1525 1523 1520 1518 1516 1513 1510
1489 1493 1497 1501 1504 1508 1511 1514 1517 1520 1523 1525 1527 1529 1530 1532 1532 1533 1534 1534 1535 1536 1536 1537 1537 1536 1536 1536 1535 1534 1533 1532 1530 1529 1527 1525 1523 1521 1518 1516 1513 1511 1508
1485 1490 1494 1498 1502 1506 1510 1513 1516 1519 1521 1524 1526 1528 1529 1531 1531 1532 1533 1533 1534 1535 1536 1536 1536 1536 1535 1535 1534 1533 1532 1530 1529 1527 1525 1523 1521 1519 1516 1514 1511 1508 1505
1482 1486 1491 1495 1499 1503 1507 1511 1514 1517 1520 1522 1524 1526 1528 1529 1530 1531 1532 1532 1533 1534 1534 1534 1535 1534 1534 1533 1533 1531 1530 1529 1527 1525 1523 1521 1519 1516 1514 1511 1508 1505 1502
1478 1482 1487 1492 1496 1500 1504 1508 1512 1515 1517 1520 1522 1524 1526 1527 1529 1530 1530 1531 1532 1532 1533 1533 1533 1533 1532 1532 1531 1530 1528 1527 1525 1523 1521 1519 1516 1514 1511 1508 1505 1502 1499
1473 1478 1483 1488 1493 1497 1501 1505 1509 1512 1515 1518 1521 1523 1525 1526 1527 1528 1529 1530 1530 1531 1531 1531 1531 1531 1530 1529 1529 1528 1526 1524 1523 1521 1518 1516 1513 1511 1508 1505 1502 1499 1495
1469 1474 1479 1484 1489 1493 1497 1502 1506 1510 1513 1516 1518 1521 1523 1524 1525 1526 1527 1528 1528 1529 1529 1529 1529 1528 1528 1527 1526 1525 1523 1522 1520 1518 1516 1513 1511 1508 1505 1502 1499 1495 1492
1464 1469 1474 1479 1485 1489 1494 1498 1502 1506 1509 1512 1514 1517 1520 1523 1522 1524 1524 1525 1526 1526 1526 1527 1526 1526 1525 1524 1524 1522 1521 1519 1517 1515 1513 1510 1507 1505 1502 1499 1495 1492 1488
1459 1465 1470 1475 1480 1485 1489 1494 1498 1502 1505 1509 1511 1514 1516 1517 1519 1521 1521 1522 1523 1523 1524 1524 1524 1523 1523 1522 1521 1519 1518 1516 1514 1512 1509 1507 1504 1501 1498 1495 1492 1488 1484
1455 1461 1465 1470 1476 1480 1485 1490 1494 1498 1501 1504 1508 1510 1513 1514 1516 1517 1519 1519 1520 1520 1521 1521 1521 1520 1520 1519 1517 1516 1515 1513 1511 1508 1506 1503 1500 1497 1494 1491 1488 1484 1480
1450 1456 1461 1465 1471 1476 1481 1486 1490 1494 1497 1500 1503 1506 1509 1511 1512 1513 1514 1516 1517 1517 1518 1518 1518 1517 1517 1516 1514 1513 1511 1509 1507 1505 1502 1499 1496 1493 1490 1487 1484 1480 1476
1444 1449 1455 1460 1465 1471 1476 1481 1485 1489 1493 1496 1499 1502 1504 1506 1508 1510 1511 1512 1513 1514 1514 1515 1514 1514 1513 1512 1511 1510 1508 1506 1503 1501 1498 1495 1492 1489 1486 1483 1479 1476 1472
1438 1443 1450 1455 1460 1466 1471 1476 1481 1485 1489 1492 1495 1498 1501 1503 1505 1507 1508 1509 1510 1511 1511 1511 1511 1510 1510 1509 1508 1506 1504 1502 1500 1497 1494 1491 1488 1485 1482 1479 1475 1472 1468
1433 1438 1445 1450 1455 1461 1466 1471 1476 1480 1484 1488 1491 1494 1497 1499 1501 1503 1504 1506 1507 1508 1508 1508 1507 1507 1507 1506 1504 1503 1501 1498 1496 1493 1491 1488 1485 1482 1478 1475 1471 1468 1464
1430 1434 1439 1444 1450 1455 1460 1466 1471 1475 1479 1483 1486 1489 1492 1495 1497 1499 1501 1502 1504 1503 1504 1504 1504 1503 1503 1502 1501 1499 1497 1495 1493 1490 1487 1484 1481 1478 1475 1471 1468 1464 1460
1426 1429 1434 1439 1444 1450 1455 1460 1465 1470 1474 1478 1481 1485 1487 1490 1493 1495 1496 1498 1499 1500 1500 1500 1500 1500 1499 1499 1497 1495 1493 1491 1489 1486 1484 1481 1478 1475 1471 1468 1464 1461 1457
1421 1424 1429 1434 1439 1444 1449 1455 1459 1464 1468 1472 1476 1479 1482 1485 1487 1490 1492 1493 1495 1496 1496 1496 1497 1496 1496 1495 1493 1491 1490 1487 1485 1483 1480 1477 1474 1471 1468 1464 1461 1457 1454
1415 1419 1424 1429 1433 1438 1443 1448 1453 1458 1462 1466 1470 1473 1476 1480 1482 1485 1487 1488 1490 1491 1492 1492 1492 1492 1491 1491 1489 1488 1486 1484 1481 1479 1477 1474 1471 1468 1465 1461 1458 1455 1451
1410 1414 1419 1423 1428 1432 1437 1442 1447 1452 1457 1461 1465 1468 1471 1474 1477 1479 1481 1483 1485 1487 1488 1488 1488 1488 1487 1486 1485 1484 1482 1480 1478 1475 1473 1470 1468 1465 1462 1459 1455 1452 1448
1404 1408 1414 1418 1423 1427 1432 1437 1442 1447 1451 1456 1459 1463 1466 1468 1471 1474 1476 1478 1480 1482 1483 1484 1484 1484 1483 1482 1481 1479 1478 1476 1474 1472 1470 1467 1464 1461 1458 1455 1452 1448 1445
1399 1403 1408 1413 1418 1422 1426 1431 1436 1441 1446 1450 1454 1458 1461 1464 1466 1469 1471 1473 1475 1477 1478 1479 1479 1479 1478 1477 1477 1475 1474 1472 1470 1469 1466 1464 1461 1458 1455 1452 1449 1445 1442
1393 1398 1402 1407 1411 1416 1420 1426 1431 1436 1440 1444 1448 1452 1456 1459 1462 1464 1467 1469 1471 1472 1473 1474 1474 1474 1474 1474 1473 1472 1471 1468 1466 1465 1463 1461 1458 1455 1452 1449 1446 1443 1440
1387 1392 1396 1401 1405 1410 1416 1420 1426 1430 1435 1439 1443 1447 1450 1453 1457 1459 1462 1464 1466 1467 1469 1470 1470 1470 1470 1470 1470 1469 1468 1466 1464 1462 1460 1457 1455 1452 1449 1446 1443 1440 1437
1382 1386 1390 1395 1399 1404 1410 1415 1420 1425 1429 1433 1437 1441 1445 1448 1451 1454 1457 1459 1461 1463 1464 1465 1466 1466 1467 1467 1467 1466 1465 1463 1462 1459 1457 1454 1451 1449 1446 1444 1441 1438 1435
1377 1381 1385 1390 1394 1399 1404 1409 1415 1420 1424 1428 1432 1436 1439 1443 1446 1449 1452 1454 1456 1458 1460 1461 1462 1463 1463 1463 1463 1463 1461 1460 1458 1456 1455 1452 1449 1446 1443 1441 1439 1435 1432
1373 1376 1380 1385 1389 1394 1398 1404 1409 1414 1418 1422 1426 1430 1434 1438 1441 1444 1447 1449 1451 1453 1455 1457 1458 1459 1460 1460 1460 1459 1458 1457 1455 1453 1452 1450 1447 1444 1440 1438 1436 1433 1430